Hourly Data Report for July 18, 2020

All times are specified in Local Standard Time (LST). Add 1 hour to adjust for Daylight Saving Time where and when it is observed.

OTTAWA INTL A
ONTARIO
Current Station Operator: NAVCAN

45°19'00.000" N
75°40'00.000" W
114.90 m
6106001
71628
YOW

Download Data

Hourly Data (July 2020)
Hourly Data Report for July 18, 2020
TIME Temp Definition
°C
Dew Point Definition
°C
Rel Hum Definition
%
Wind Dir Definition
10's deg

Wind Spd Definition
km/h
Visibility Definition
km
Stn Press Definition
kPa
Hmdx Definition


Wind Chill Definition


Weather Definition


00:00 21.3 15.4 69 21 9 24.1 100.24 26   LegendNANA
01:00 20.4 15.9 75 25 9 24.1 100.29 25   Mainly Clear
02:00 19.8 15.5 76 24 10 24.1 100.26     LegendNANA
03:00 18.2 15.7 85 20 10 24.1 100.19     LegendNANA
04:00 17.2 15.6 90 18 7 24.1 100.20     Clear
05:00 17.2 16.1 93 19 9 24.1 100.30     LegendNANA
06:00 20.1 17.5 85 22 8 24.1 100.31 26   LegendNANA
07:00 22.8 17.3 71 22 9 24.1 100.29 28   Mainly Clear
08:00 25.9 16.8 57 21 10 24.1 100.27 31   LegendNANA
09:00 27.1 16.9 53 20 10 24.1 100.24 32   LegendNANA
10:00 28.6 16.9 49 21 13 24.1 100.16 34   Clear
11:00 30.8 16.9 43 25 18 24.1 100.14 36   LegendNANA
12:00 29.9 17.4 46 22 15 24.1 100.07 35   LegendNANA
13:00 29.8 17.9 48 29 14 24.1 100.05 36   Mostly Cloudy
14:00 31.3 18.2 45 26 14 24.1 100.03 37   LegendNANA
15:00 31.9 17.6 42 24 9 24.1 99.96 38   LegendNANA
16:00 31.7 16.3 39 32 14 24.1 99.94 37   Mostly Cloudy
17:00 31.2 16.5 41 27 8 24.1 99.90 36   LegendNANA
18:00 29.6 20.4 57 18 13 24.1 99.82 38   LegendNANA
19:00 27.8 20.1 63 20 14 24.1 99.79 35   Mostly Cloudy
20:00 26.3 19.9 68 21 12 24.1 99.83 34   LegendNANA
21:00 25.9 19.6 68 21 12 24.1 99.87 33   LegendNANA
22:00 24.7 19.9 74 19 10 24.1 99.86 32   Mostly Cloudy
23:00 24.2 20.1 78 19 9 24.1 99.82 32   LegendNANA

Notes on Data Quality.

Legend

  • E = Estimated
  • M = Missing
  • NA = Not Available*
  • [empty] = Indicates an unobserved value
Date modified: